Weather History for Peru, IN

Change the Weather History Date:

Wednesday, January 18, 2012

  Actual Average Record
Temperature  
Mean Temperature 22 °F -  
Max Temperature 26 °F 28 °F 37 °F (2011)
Min Temperature 18 °F 16 °F -7 °F (1997)
Degree Days  
Heating Degree Days 43    
Moisture  
Dew Point 22 °F    
Average Humidity 98    
Maximum Humidity 100    
Minimum Humidity 92    
Precipitation  
Precipitation 0.00 in - - ()
Sea Level Pressure  
Sea Level Pressure 30.23 in    
Wind  
Wind Speed 13 mph (West)    
Max Wind Speed 18 mph    
Max Gust Speed -    
Visibility 10 miles    
Events Snow    
Averages and records for this station are not official NWS values.
T = Trace of Precipitation, MM = Missing Value Source: NWS Daily Summary

Daily Weather History Graph

Daily Weather History Graph

Search for Another Location

Airport:

Trip Planner

Search our weather history database for the weather conditions in past years. The results will help you decide how hot, cold, wet, or windy it might be!

Date:

Astronomy

Jan. 18, 2012 Rise Set
Actual Time 8:05 AM EST 5:44 PM EST
Civil Twilight 7:35 AM EST 6:14 PM EST
Nautical Twilight 7:01 AM EST 6:48 PM EST
Astronomical Twilight 6:29 AM EST 7:21 PM EST
Moon 3:34 AM EST (1/18) 1:23 PM EST (1/18)
Length of Visible Light 10h 39m
Length of Day
9h 39m
Waning Crescent, 25% of the Moon is Illuminated
Jan 18
Waning Crescent
Jan 23
New
Jan 30
First Quarter
Feb 7
Full
Feb 14
Last Quarter

Hourly Weather History & Observations

Time (EST) Temp. Windchill Dew Point Humidity Pressure Visibility Wind Dir Wind Speed Gust Speed Precip Events Conditions
12:00 AM 24.8 °F 11.1 °F 24.8 °F 100% 30.18 in 10.0 mi NW 18.4 mph - N/A   Overcast
12:02 AM 24.8 °F 11.9 °F 24.8 °F 100% 30.18 in 10.0 mi NW 16.1 mph - N/A   Overcast
12:18 AM 24.8 °F 11.9 °F 24.8 °F 100% 30.18 in 10.0 mi WNW 16.1 mph - N/A   Overcast
12:27 AM 24.8 °F 13.4 °F 24.8 °F 100% 30.19 in 10.0 mi NW 12.7 mph - N/A   Overcast
12:29 AM 24.8 °F 12.9 °F 24.8 °F 100% 30.19 in 10.0 mi WNW 13.8 mph - N/A   Overcast
12:55 AM 25.0 °F 11.7 °F 24.3 °F 97% 30.20 in 10.0 mi NW 17.3 mph - 0.00 in   Overcast
1:17 AM 24.8 °F 11.1 °F 23.0 °F 93% 30.21 in 10.0 mi NW 18.4 mph - N/A   Overcast
1:27 AM 24.8 °F 14.0 °F 23.0 °F 93% 30.22 in 10.0 mi NW 11.5 mph - N/A   Overcast
1:35 AM 24.8 °F 13.4 °F 24.8 °F 100% 30.22 in 10.0 mi NNW 12.7 mph - N/A   Overcast
1:55 AM 24.4 °F 12.4 °F 24.3 °F 99% 30.23 in 10.0 mi NW 13.8 mph - 0.00 in   Overcast
2:55 AM 23.4 °F 10.1 °F 22.8 °F 98% 30.25 in 10.0 mi NW 16.1 mph - 0.00 in   Overcast
3:08 AM 23.0 °F 10.6 °F 23.0 °F 100% 30.25 in 10.0 mi NW 13.8 mph - N/A   Overcast
3:11 AM 23.0 °F 11.1 °F 23.0 °F 100% 30.25 in 10.0 mi WNW 12.7 mph - N/A   Overcast
3:42 AM 23.0 °F 10.6 °F 23.0 °F 100% 30.26 in 10.0 mi WNW 13.8 mph - N/A   Overcast
3:43 AM 23.0 °F 10.1 °F 23.0 °F 100% 30.26 in 10.0 mi WNW 15.0 mph - N/A   Overcast
3:52 AM 23.0 °F 11.1 °F 23.0 °F 100% 30.26 in 10.0 mi WNW 12.7 mph - N/A   Overcast
3:55 AM 22.3 °F 9.7 °F 22.1 °F 99% 30.26 in 10.0 mi WNW 13.8 mph - 0.00 in   Overcast
3:59 AM 23.0 °F 11.1 °F 21.2 °F 93% 30.26 in 10.0 mi WNW 12.7 mph - N/A   Overcast
4:05 AM 23.0 °F 11.1 °F 21.2 °F 93% 30.26 in 10.0 mi WNW 12.7 mph - N/A   Overcast
4:06 AM 23.0 °F 10.6 °F 21.2 °F 93% 30.26 in 10.0 mi WNW 13.8 mph - N/A   Overcast
4:17 AM 21.2 °F 9.5 °F 21.2 °F 100% 30.26 in 10.0 mi WNW 11.5 mph - N/A   Overcast
4:25 AM 21.2 °F 8.9 °F 21.2 °F 100% 30.26 in 10.0 mi WNW 12.7 mph - N/A Snow Light Snow
4:26 AM 21.2 °F 9.5 °F 21.2 °F 100% 30.26 in 10.0 mi WNW 11.5 mph - N/A   Overcast
4:38 AM 21.2 °F 8.9 °F 21.2 °F 100% 30.26 in 10.0 mi WNW 12.7 mph - N/A Snow Light Snow
4:48 AM 21.2 °F 8.3 °F 21.2 °F 100% 30.26 in 10.0 mi WNW 13.8 mph - N/A   Overcast
4:51 AM 21.2 °F 8.3 °F 21.2 °F 100% 30.26 in 10.0 mi WNW 13.8 mph - N/A   Overcast
4:55 AM 21.4 °F 9.7 °F 21.2 °F 99% 30.27 in 10.0 mi NW 11.5 mph - 0.00 in   Overcast
5:01 AM 21.2 °F 9.5 °F 21.2 °F 100% 30.27 in 10.0 mi NW 11.5 mph - N/A   Overcast
5:28 AM 21.2 °F 8.9 °F 21.2 °F 100% 30.27 in 10.0 mi NW 12.7 mph - N/A Snow Light Snow
5:30 AM 21.2 °F 10.1 °F 21.2 °F 100% 30.27 in 10.0 mi WNW 10.4 mph - N/A   Overcast
5:32 AM 21.2 °F 8.9 °F 21.2 °F 100% 30.27 in 10.0 mi WNW 12.7 mph - N/A Snow Light Snow
5:52 AM 21.2 °F 10.1 °F 21.2 °F 100% 30.27 in 10.0 mi NW 10.4 mph - N/A   Overcast
5:55 AM 20.7 °F 10.2 °F 20.3 °F 99% 30.27 in 10.0 mi NW 9.2 mph - 0.00 in   Overcast
6:28 AM 21.2 °F 9.5 °F 19.4 °F 93% 30.28 in 10.0 mi WNW 11.5 mph - N/A   Overcast
6:55 AM 19.9 °F 8.6 °F 19.6 °F 99% 30.29 in 10.0 mi NW 10.4 mph - N/A   Overcast
7:34 AM 19.4 °F 7.9 °F 19.4 °F 100% 30.29 in 10.0 mi WNW 10.4 mph - N/A Snow Light Snow
7:40 AM 19.4 °F 8.6 °F 19.4 °F 100% 30.29 in 10.0 mi West 9.2 mph - N/A   Overcast
7:55 AM 18.9 °F 8.0 °F 18.7 °F 99% 30.29 in 10.0 mi West 9.2 mph - 0.00 in   Overcast
8:55 AM 18.3 °F 9.1 °F 18.1 °F 99% 30.32 in 10.0 mi West 6.9 mph - N/A   Mostly Cloudy
9:55 AM 18.9 °F 13.7 °F 18.7 °F 99% 30.33 in 10.0 mi WSW 3.5 mph - N/A   Mostly Cloudy
10:17 AM 19.4 °F 14.3 °F 19.4 °F 100% 30.33 in 10.0 mi SSW 3.5 mph - N/A   Scattered Clouds
10:31 AM 19.4 °F 14.3 °F 19.4 °F 100% 30.28 in 10.0 mi SW 3.5 mph - N/A   Mostly Cloudy
10:55 AM 19.0 °F 10.0 °F 18.9 °F 99% 30.33 in 10.0 mi SSW 6.9 mph - N/A   Mostly Cloudy
11:55 AM 19.9 °F 10.1 °F 19.6 °F 99% 30.32 in 10.0 mi SSW 8.1 mph - N/A   Overcast
12:55 PM 20.7 °F 14.2 °F 20.5 °F 99% 30.27 in 10.0 mi WSW 4.6 mph - N/A   Mostly Cloudy
1:30 PM 23.0 °F 18.4 °F 23.0 °F 100% 30.24 in 10.0 mi Variable 3.5 mph - N/A   Scattered Clouds
1:55 PM 23.4 °F 17.4 °F 22.1 °F 95% 30.23 in 10.0 mi SSW 4.6 mph - N/A   Scattered Clouds
2:55 PM 25.0 °F 16.3 °F 23.5 °F 94% 30.19 in 10.0 mi South 8.1 mph - N/A   Scattered Clouds
3:55 PM 26.2 °F 17.8 °F 24.1 °F 92% 30.18 in 10.0 mi SSW 8.1 mph - N/A   Clear
4:55 PM 26.2 °F 16.4 °F 24.3 °F 92% 30.16 in 10.0 mi South 10.4 mph - N/A   Clear
5:55 PM 24.3 °F 16.3 °F 23.9 °F 99% 30.15 in 10.0 mi SSW 6.9 mph - N/A   Clear
6:55 PM 22.8 °F 15.5 °F 22.6 °F 99% 30.13 in 10.0 mi South 5.8 mph - N/A   Clear
7:55 PM 23.2 °F 15.0 °F 23.0 °F 99% 30.12 in 10.0 mi South 6.9 mph - N/A   Mostly Cloudy
8:55 PM 24.4 °F 14.2 °F 24.1 °F 99% 30.07 in 10.0 mi SSE 10.4 mph - N/A   Clear
9:55 PM 24.6 °F 12.7 °F 24.4 °F 99% 30.04 in 10.0 mi South 13.8 mph - N/A   Mostly Cloudy
10:55 PM 24.6 °F 15.1 °F 24.4 °F 99% 30.01 in 10.0 mi South 9.2 mph - N/A   Mostly Cloudy
11:55 PM 24.6 °F 14.4 °F 24.4 °F 99% 30.02 in 10.0 mi South 10.4 mph - N/A   Clear